Regional Weather Roundup
Issued by NWS

Home | Current Version | Previous Version | Graphics & Text | Print | Product List | Glossary On
Versions: 1 2 3 4 5 6 7 8 9 10 11 12 13 14 15 16 17 18 19 20 21 22 23 24 25 26 27 28 29 30 31 32 33 34 35 36 37 38 39 40 41 42 43 44 45 46 47 48 49 50
285
ASUS44 KJAN 300603
RWRMS

MISSISSIPPI HOURLY WEATHER ROUNDUP
NATIONAL WEATHER SERVICE JACKSON MS
100 AM CDT SAT AUG 30 2014

NOTE: "FAIR: INDICATES FEW OR NO CLOUDS BELOW 12,000 FEET WITH NO
SIGNIFICANT WEATHER AND/OR OBSTRUCTIONS TO VISIBILITY.

MSZ001>002-007>008-010>013-018>021-025>028-034>036-300700-
NORTHWEST MISSISSIPPI

CITY           SKY/WX    TMP DP  RH WIND       PRES   REMARKS
CLARKSDALE     FAIR      77  75  94 CALM      30.00S
CLEVELAND      FAIR      78  73  84 S8        30.00R
GREENWOOD      FAIR      77  71  82 S6        30.02R
6HR MIN TEMP:  75; 6HR MAX TEMP:  83;

GREENVILLE     FAIR      78  72  81 S7        30.00R
6HR MIN TEMP:  75; 6HR MAX TEMP:  87;

GRENADA        FAIR      77  68  73 S5        30.02R
OLIVE BRANCH   PTCLDY    77  73  88 SE3       30.01F
OXFORD         FAIR      75  66  73 CALM      30.04S
TUNICA         FAIR      75  72  88 CALM      30.00S
$$

MSZ003>006-009-014>017-022>024-029>033-037>039-300700-
NORTHEAST MISSISSIPPI

CITY           SKY/WX    TMP DP  RH WIND       PRES   REMARKS
BELMONT        FAIR      72  68  88 CALM      30.05S
COLUMBUS AFB   FAIR      73  67  81 CALM      30.04R
6HR MIN TEMP:  73; 6HR MAX TEMP:  88;

CORINTH          N/A     72  68  88 CALM      30.02F
GOLDN TRIANGLE FAIR      75  64  69 CALM      30.04S
STARKVILLE     FAIR      73  68  83 CALM      30.04S
TUPELO         FAIR      77  66  68 CALM      30.03R
6HR MIN TEMP:  76; 6HR MAX TEMP:  89;

$$

MSZ040-058-300700-
CENTRAL MISSISSIPPI

CITY           SKY/WX    TMP DP  RH WIND       PRES   REMARKS
JACKSON INTL   FAIR      77  70  79 S8        30.04R
6HR MIN TEMP:  77; 6HR MAX TEMP:  85;

JACKSON HAWKNS MOCLDY    78  70  76 S9        30.04R
6HR MIN TEMP:  78; 6HR MAX TEMP:  86;

MERIDIAN KEY   FAIR      77  71  82 SW3       30.04R
6HR MIN TEMP:  76; 6HR MAX TEMP:  87;

MERIDIAN NAS   FAIR      78  71  79 CALM      30.04R
6HR MIN TEMP:  77; 6HR MAX TEMP:  85;

RAYMOND        FAIR      77  72  83 MISG      30.04R
VICKSBURG      LGT RAIN  78  74  87 S7        30.02R
6HR MIN TEMP:  77; 6HR MAX TEMP:  87; 6HR PCP: TRACE;

$$

MSZ059>079-300700-
SOUTH MISSISSIPPI

CITY           SKY/WX    TMP DP  RH WIND       PRES   REMARKS
BROOKHAVEN     FAIR      75  73  94 SE5       30.05S
COLUMBIA       FAIR      75  73  94 SE3       30.03S
HATTIESBURG    FAIR      76  73  91 S5        30.06R
6HR MIN TEMP:  75; 6HR MAX TEMP:  77;

MCCOMB         FAIR      75  73  93 SE5       30.04R
6HR MIN TEMP:  74; 6HR MAX TEMP:  79; 6HR PCP: TRACE;

NATCHEZ        FAIR      77  72  83 SE7       30.02S
6HR MIN TEMP:  77; 6HR MAX TEMP:  82;

PINE BELT      FAIR      73  70  88 SW6       30.06S
6HR MIN TEMP:  73; 6HR MAX TEMP:  75;

$$

MSZ080>082-300700-
COASTAL MISSISSIPPI

CITY           SKY/WX    TMP DP  RH WIND       PRES   REMARKS
BILOXI         FAIR      82  76  83 S9        30.04R
6HR MIN TEMP:  77; 6HR MAX TEMP:  82;

PASCAGOULA     FAIR      78  75  90 S5        30.05R
6HR MIN TEMP:  76; 6HR MAX TEMP:  78; 6HR PCP: TRACE;

GULFPORT       MOCLDY    81  77  88 S7        30.03S
6HR MIN TEMP:  77; 6HR MAX TEMP:  81;

$$



USA.gov is the U.S. government's official web portal to all federal, state and local government web resources and services.